Погода в Сарафаново

Россия / Челябинская область     54°53′38″N   60°15′53″E
темп.,
°C
ветер,
м/с
пор.,
м/с
влажн.,
%
обл.,
%
осадки,
мм/ч
давл.,
гПа
погр.,
м
27 января, ср
ср2723:00−3юз2386100 0.0 103051
02:00−3юз2383100 0.0 103060
05:00−3зюз2380100 0.0 103068
08:00−4юз3384100 0.0 103079
11:00−3юз2686100 0.0 1030164
14:000зюз27854 0.0 1030534
17:00−3зюз129036 0.0 103021
20:00−5юз228977 0.0 103121
28 января, чт
чт2823:00−7зюз229064 0.0 103022
02:00−7юз238899 0.0 102941
05:00−7юз238799 0.0 102948
08:00−7юз2387100 0.0 102863
11:00−5юз3586100 0.0 1028134
14:00−3юз4783100 0.0 1026213
17:00−4ююз4884100 0.0 1026160
20:00−6юз3487100 0.0 102682
29 января, пт
пт2923:00−7юз2284100 0.0 102621
02:00−7зюз2281100 0.0 102721
05:00−7зюз1278100 0.0 102621
08:00−8юз2278100 0.0 102521
11:00−6юз2280100 0.0 102555
14:00−3ююз3777100 0.0 1023241
17:00−7ю4981100 0.0 1022228
20:00−11ююз41086100 0.0 1021212
30 января, сб
сб3023:00−12ююз31088100 0.0 1021227
02:00−14ююз3992100 0.0 1020219
05:00−11ююз41090100 0.0 1019308
08:00−11ююз41192100 0.2 1018282
11:00−10ююз3792100 0.2 1018245
14:00−7ююз349192 0.0 1018262
17:00−9ю229596 0.0 101835
20:00−11юз129596 0.0 101821
31 января, вс
вс3123:00−12юз129596 0.0 101821
02:00−12з119471 0.0 101821
05:00−11с019386 0.0 101821
08:00−12всв019527 0.0 101821
11:00−8ююз119115 0.0 101835
14:00−3ююв118632 0.0 1018166
17:00−6юв129466 0.0 101721
20:00−8ююз129195 0.0 101821